| time (UTC) | temp C | wind direction | speed KPH | gust KPH | rain 1hr cm | rain 24hr cm | rain mn cm | humidity % | barometer mb |
| 20260504202630 | 16 | 0 | 0.0 | 0.0 | 0.00 | 0.28 | 0.28 | 91 | 1010.7 |
| 20260504200830 | 16 | 0 | 0.0 | 0.0 | 0.00 | 0.28 | 0.28 | 91 | 1010.5 |
| 20260504195930 | 16 | 0 | 0.0 | 0.0 | 0.00 | 0.28 | 0.28 | 91 | 1010.4 |
| 20260504195030 | 16 | 0 | 0.0 | 0.0 | 0.00 | 0.28 | 0.28 | 90 | 1010.3 |
| 20260504193230 | 16 | 200 | 3.2 | 8.0 | 0.00 | 0.28 | 0.28 | 90 | 1009.9 |
| 20260504192330 | 16 | 200 | 3.2 | 9.7 | 0.00 | 0.28 | 0.28 | 90 | 1009.8 |
| 20260504191430 | 17 | 197 | 1.6 | 9.7 | 0.00 | 0.28 | 0.28 | 90 | 1009.7 |
| 20260504190530 | 17 | 192 | 3.2 | 6.4 | 0.00 | 0.28 | 0.28 | 90 | 1009.6 |
| 20260504185630 | 17 | 189 | 1.6 | 9.7 | 0.00 | 0.28 | 0.28 | 90 | 1009.4 |
| 20260504184730 | 17 | 175 | 3.2 | 9.7 | 0.00 | 0.28 | 0.28 | 89 | 1009.2 |
| 20260504182930 | 17 | 169 | 3.2 | 9.7 | 0.00 | 0.28 | 0.28 | 90 | 1009.0 |
| 20260504182030 | 17 | 169 | 6.4 | 16.1 | 0.00 | 0.28 | 0.28 | 90 | 1009.2 |
| 20260504181130 | 17 | 168 | 8.0 | 16.1 | 0.00 | 0.28 | 0.28 | 90 | 1009.3 |
| 20260504180230 | 17 | 169 | 4.8 | 14.5 | 0.00 | 0.28 | 0.28 | 90 | 1009.3 |
| 20260504175330 | 17 | 173 | 1.6 | 12.9 | 0.00 | 0.28 | 0.28 | 90 | 1009.3 |
| 20260504174430 | 17 | 179 | 0.0 | 4.8 | 0.00 | 0.28 | 0.28 | 91 | 1009.4 |
| 20260504173530 | 17 | 177 | 3.2 | 8.0 | 0.00 | 0.28 | 0.28 | 90 | 1009.4 |
| 20260504171730 | 17 | 189 | 4.8 | 11.3 | 0.03 | 0.28 | 0.28 | 91 | 1009.4 |
| 20260504170830 | 17 | 172 | 4.8 | 14.5 | 0.05 | 0.28 | 0.28 | 91 | 1009.4 |
| 20260504151130 | 19 | 175 | 11.3 | 25.7 | 0.00 | 0.00 | 0.00 | 80 | 1009.8 |
| 20260504150230 | 19 | 195 | 11.3 | 22.5 | 0.00 | 0.00 | 0.00 | 80 | 1010.0 |
| 20260504140829 | 21 | 175 | 9.7 | 25.7 | 0.00 | 0.00 | 0.00 | 74 | 1009.5 |
| 20260504130530 | 21 | 88 | 6.4 | 14.5 | 0.00 | 0.00 | 0.00 | 76 | 1009.7 |
| 20260504120229 | 21 | 83 | 11.3 | 17.7 | 0.00 | 0.00 | 0.00 | 75 | 1010.7 |
| 20260504110344 | 21 | 42 | 17.7 | 29.0 | 0.00 | 0.00 | 0.00 | 76 | 1010.8 |
| 20260504081244 | 20 | 152 | 4.8 | 16.1 | 0.00 | 0.00 | 0.00 | 76 | 1011.0 |
| 20260504080344 | 20 | 173 | 3.2 | 12.9 | 0.00 | 0.00 | 0.00 | 76 | 1011.2 |
| 20260504050344 | 14 | 203 | 4.8 | 11.3 | 0.00 | 0.00 | 0.00 | 89 | 1011.6 |
| 20260504045444 | 13 | 201 | 0.0 | 9.7 | 0.00 | 0.00 | 0.00 | 90 | 1011.6 |
| 20260504044544 | 13 | 0 | 0.0 | 0.0 | 0.00 | 0.00 | 0.00 | 89 | 1011.6 |
| 20260504043644 | 13 | 0 | 0.0 | 0.0 | 0.00 | 0.00 | 0.00 | 89 | 1011.7 |
| 20260504042744 | 13 | 0 | 0.0 | 0.0 | 0.00 | 0.00 | 0.00 | 89 | 1011.7 |
| 20260504040945 | 14 | 0 | 0.0 | 0.0 | 0.00 | 0.00 | 0.00 | 89 | 1011.9 |
| 20260504040044 | 14 | 0 | 0.0 | 0.0 | 0.00 | 0.00 | 0.00 | 89 | 1011.9 |
| 20260504035144 | 14 | 0 | 0.0 | 0.0 | 0.00 | 0.00 | 0.00 | 89 | 1012.0 |
| 20260504034244 | 15 | 0 | 0.0 | 0.0 | 0.00 | 0.00 | 0.00 | 89 | 1012.0 |
| 20260504033344 | 15 | 0 | 0.0 | 0.0 | 0.00 | 0.00 | 0.00 | 89 | 1011.9 |
| 20260504032444 | 15 | 0 | 0.0 | 0.0 | 0.00 | 0.00 | 0.00 | 89 | 1012.1 |
| 20260504031544 | 15 | 0 | 0.0 | 0.0 | 0.00 | 0.00 | 0.00 | 89 | 1012.3 |
| 20260504030644 | 15 | 195 | 3.2 | 6.4 | 0.00 | 0.00 | 0.00 | 89 | 1012.3 |
| 20260504025744 | 14 | 196 | 1.6 | 8.0 | 0.00 | 0.00 | 0.00 | 89 | 1012.3 |
| 20260504024844 | 14 | 198 | 0.0 | 8.0 | 0.00 | 0.00 | 0.00 | 89 | 1012.3 |
| 20260504023944 | 14 | 0 | 0.0 | 0.0 | 0.00 | 0.00 | 0.00 | 89 | 1012.3 |
| 20260504022144 | 14 | 0 | 0.0 | 0.0 | 0.00 | 0.00 | 0.00 | 89 | 1012.4 |
| 20260504021244 | 14 | 0 | 0.0 | 0.0 | 0.00 | 0.00 | 0.00 | 88 | 1012.5 |
| 20260504020344 | 14 | 0 | 0.0 | 0.0 | 0.00 | 0.00 | 0.00 | 88 | 1012.4 |
| 20260504015444 | 14 | 0 | 0.0 | 0.0 | 0.00 | 0.00 | 0.00 | 87 | 1012.6 |
| 20260504014544 | 14 | 0 | 0.0 | 0.0 | 0.00 | 0.00 | 0.00 | 87 | 1012.7 |
| 20260504013644 | 15 | 0 | 0.0 | 0.0 | 0.00 | 0.00 | 0.00 | 87 | 1012.7 |
| 20260504012744 | 15 | 0 | 0.0 | 0.0 | 0.00 | 0.00 | 0.00 | 87 | 1012.6 |
| 20260504011844 | 15 | 0 | 0.0 | 0.0 | 0.00 | 0.00 | 0.00 | 87 | 1012.7 |
| 20260504010944 | 15 | 0 | 0.0 | 0.0 | 0.00 | 0.00 | 0.00 | 87 | 1012.7 |
| 20260504010044 | 15 | 0 | 0.0 | 0.0 | 0.00 | 0.00 | 0.00 | 87 | 1012.8 |
| 20260504005144 | 15 | 0 | 0.0 | 0.0 | 0.00 | 0.00 | 0.00 | 86 | 1012.9 |
| 20260504004244 | 15 | 0 | 0.0 | 0.0 | 0.00 | 0.00 | 0.00 | 86 | 1012.9 |
| 20260504002444 | 15 | 0 | 0.0 | 0.0 | 0.00 | 0.00 | 0.00 | 86 | 1012.9 |
| 20260503235744 | 15 | 0 | 0.0 | 0.0 | 0.00 | 0.00 | 0.00 | 86 | 1013.1 |
| 20260503234844 | 15 | 200 | 0.0 | 6.4 | 0.00 | 0.00 | 0.00 | 86 | 1013.3 |
| 20260503233944 | 15 | 200 | 0.0 | 3.2 | 0.00 | 0.00 | 0.00 | 87 | 1013.3 |
| 20260503233044 | 15 | 199 | 1.6 | 4.8 | 0.00 | 0.00 | 0.00 | 86 | 1013.4 |
| 20260503232144 | 15 | 199 | 1.6 | 4.8 | 0.00 | 0.00 | 0.00 | 86 | 1013.4 |
| 20260503231244 | 15 | 0 | 0.0 | 0.0 | 0.00 | 0.00 | 0.00 | 86 | 1013.6 |
| 20260503230344 | 15 | 0 | 0.0 | 0.0 | 0.00 | 0.00 | 0.00 | 86 | 1013.7 |
| 20260503225444 | 16 | 0 | 0.0 | 0.0 | 0.00 | 0.00 | 0.00 | 86 | 1013.8 |
| 20260503224544 | 16 | 0 | 0.0 | 0.0 | 0.00 | 0.00 | 0.00 | 86 | 1014.1 |
| 20260503223644 | 16 | 0 | 0.0 | 0.0 | 0.00 | 0.00 | 0.00 | 86 | 1014.1 |
| 20260503222744 | 16 | 0 | 0.0 | 0.0 | 0.00 | 0.00 | 0.00 | 86 | 1014.2 |
| 20260503221844 | 16 | 0 | 0.0 | 0.0 | 0.00 | 0.00 | 0.00 | 86 | 1014.4 |
| 20260503220944 | 16 | 0 | 0.0 | 0.0 | 0.00 | 0.00 | 0.00 | 85 | 1014.4 |
| 20260503220044 | 16 | 199 | 1.6 | 4.8 | 0.00 | 0.00 | 0.00 | 85 | 1014.5 |
| 20260503215144 | 16 | 196 | 3.2 | 6.4 | 0.00 | 0.00 | 0.00 | 85 | 1014.4 |
| 20260503214244 | 16 | 189 | 0.0 | 8.0 | 0.00 | 0.00 | 0.00 | 85 | 1014.3 |
| 20260503213344 | 16 | 0 | 1.6 | 0.0 | 0.00 | 0.00 | 0.00 | 85 | 1014.5 |
| 20260503212444 | 16 | 173 | 3.2 | 11.3 | 0.00 | 0.00 | 0.00 | 85 | 1014.6 |
| 20260503210644 | 16 | 157 | 8.0 | 12.9 | 0.00 | 0.00 | 0.00 | 86 | 1014.7 |
| 20260503205744 | 16 | 150 | 8.0 | 17.7 | 0.00 | 0.00 | 0.00 | 86 | 1014.7 |
| 20260503204844 | 16 | 152 | 6.4 | 16.1 | 0.00 | 0.00 | 0.00 | 86 | 1014.8 |
| 20260503203944 | 16 | 147 | 4.8 | 16.1 | 0.00 | 0.00 | 0.00 | 86 | 1014.9 |